period_start,C,m1,H,J0,J1,J2,J3,J4,J5,JA,JB,JC,JD,JJ,JK,JN,#
2018-07-05 00:00:24,0.72,9.38,1.00,29.10,32.73,35.19,13.68,58.51,1004.62,1999.99,1220.82,1517.32,1668.52,600.00,577.16,8.39,0000 0000 0000 0000 000000
2018-07-05 00:05:26,0.72,9.41,1.00,29.10,32.72,35.19,13.64,58.34,1004.56,1999.99,1216.77,1514.31,1665.04,600.27,577.34,8.44,0000 0000 0000 0000 000000
2018-07-05 00:10:27,0.72,9.45,1.00,29.10,32.72,35.18,13.63,58.47,1004.45,1999.99,1212.79,1511.26,1661.61,600.18,577.21,8.49,0000 0000 0000 0000 000000
2018-07-05 00:15:28,0.74,9.49,1.00,29.10,32.72,35.17,13.58,58.45,1004.51,1999.99,1208.70,1508.22,1658.12,599.88,576.97,8.54,0000 0000 0000 0000 000000
2018-07-05 00:20:30,0.79,9.53,1.00,29.10,32.72,35.17,13.66,58.59,1004.44,1999.99,1204.39,1505.08,1654.41,599.87,576.81,8.59,0000 0000 0000 0000 000000
2018-07-05 00:25:31,0.83,9.57,1.00,29.10,32.72,35.17,13.66,58.67,1004.42,1999.99,1199.90,1501.68,1650.51,600.17,577.14,8.64,0000 0000 0000 0000 000000
2018-07-05 00:30:33,0.82,9.61,1.00,29.10,32.71,35.17,13.61,58.52,1004.41,1999.99,1195.44,1498.28,1646.65,599.84,576.94,8.69,0000 0000 0000 0000 000000
2018-07-05 00:35:34,0.82,9.65,1.00,29.10,32.70,35.15,13.66,58.66,1004.41,1999.99,1191.02,1494.96,1642.79,599.59,576.59,8.74,0000 0000 0000 0000 000000
2018-07-05 00:40:35,0.83,9.69,1.00,29.10,32.70,35.14,13.64,58.74,1004.41,1999.99,1186.57,1491.55,1638.85,600.00,577.02,8.79,0000 0000 0000 0000 000000
2018-07-05 00:45:37,0.78,9.73,1.00,29.10,32.70,35.16,13.63,58.80,1004.40,1999.99,1182.22,1488.36,1635.16,600.38,577.33,8.84,0000 0000 0000 0000 000000
2018-07-05 00:50:38,0.56,9.77,1.00,29.10,32.70,35.14,13.58,58.92,1004.41,1999.99,1179.15,1485.92,1632.40,599.75,576.68,8.89,0000 0000 0000 0000 000000
2018-07-05 00:55:39,0.58,9.79,1.00,29.10,32.70,35.15,13.67,58.75,1004.41,1999.99,1176.04,1483.61,1629.65,600.17,577.09,8.94,0000 0000 0000 0000 000000
2018-07-05 01:00:41,0.66,9.82,1.00,29.10,32.70,35.14,13.68,58.82,1004.40,1999.99,1172.59,1481.13,1626.80,600.18,577.17,8.99,0000 0000 0000 0000 000000
2018-07-05 01:05:42,0.76,9.86,1.00,29.10,32.70,35.13,13.55,58.83,1004.35,2000.01,1168.65,1478.24,1623.46,599.86,576.90,9.04,0000 0000 0000 0000 000000
2018-07-05 01:10:43,0.60,9.90,1.00,29.10,32.69,35.14,13.70,59.01,1004.38,2000.01,1165.23,1475.65,1620.45,599.96,576.90,9.09,0000 0000 0000 0000 000000
2018-07-05 01:15:45,0.55,9.92,1.00,29.10,32.69,35.13,13.64,59.06,1004.27,2000.01,1162.39,1473.35,1617.87,599.91,576.77,9.14,0000 0000 0000 0000 000000
2018-07-05 01:20:46,0.71,9.96,1.00,29.10,32.68,35.13,13.62,58.93,1003.99,2000.01,1158.83,1470.82,1614.77,600.37,577.00,9.19,0000 0000 0000 0000 000000
2018-07-05 01:25:47,0.78,10.00,1.00,29.10,32.68,35.12,13.61,59.06,1003.95,2000.05,1154.81,1467.69,1611.10,599.93,576.69,9.24,0000 0000 0000 0000 000000
2018-07-05 01:30:49,0.68,10.03,1.00,29.10,32.68,35.12,13.60,59.02,1003.95,2000.00,1151.35,1464.81,1607.79,600.11,576.85,9.29,0000 0000 0000 0000 000000
2018-07-05 01:35:50,0.67,10.06,1.00,29.10,32.67,35.11,13.63,59.04,1003.93,2000.02,1148.18,1462.23,1604.86,600.00,576.71,9.34,0000 0000 0000 0000 000000
2018-07-05 01:40:52,0.69,10.10,1.00,29.10,32.67,35.11,13.65,58.94,1003.93,2000.02,1144.65,1459.35,1601.54,600.02,576.70,9.39,0000 0000 0000 0000 000000
2018-07-05 01:45:53,0.61,10.13,1.00,29.10,32.67,35.10,13.65,58.96,1003.92,2000.03,1141.68,1456.74,1598.68,600.24,576.87,9.44,0000 0000 0000 0000 000000
2018-07-05 01:50:54,0.58,10.16,1.00,29.10,32.67,35.10,13.65,59.13,1003.92,2000.00,1138.81,1454.32,1595.99,599.64,576.43,9.49,0000 0000 0000 0000 000000
2018-07-05 01:55:56,0.56,10.19,1.00,29.10,32.67,35.10,13.60,58.98,1003.92,2000.02,1136.03,1452.10,1593.37,600.04,576.74,9.54,0000 0000 0000 0000 000000
2018-07-05 02:00:57,0.54,10.22,1.00,29.10,32.67,35.09,13.65,59.21,1003.92,2000.02,1133.35,1449.97,1590.97,599.68,576.40,9.59,0000 0000 0000 0000 000000
2018-07-05 02:05:58,0.55,10.25,1.00,29.10,32.67,35.09,13.63,59.18,1003.93,2000.02,1130.57,1447.84,1588.53,599.51,576.25,9.64,0000 0000 0000 0000 000000
2018-07-05 02:11:00,0.53,10.27,1.00,29.10,32.67,35.10,13.58,59.30,1003.93,2000.01,1127.94,1445.73,1586.18,600.12,576.81,9.69,0000 0000 0000 0000 000000
2018-07-05 02:16:01,0.55,10.30,1.00,29.10,32.67,35.10,13.68,59.12,1003.93,2000.01,1125.26,1443.65,1583.67,600.14,576.86,9.74,0000 0000 0000 0000 000000
2018-07-05 02:21:02,0.62,10.33,1.00,29.10,32.67,35.09,13.60,59.55,1003.93,2000.01,1122.14,1441.44,1581.14,600.08,576.76,9.79,0000 0000 0000 0000 000000
2018-07-05 02:26:04,0.62,10.36,1.00,29.10,32.67,35.10,13.63,59.60,1003.94,2000.00,1118.86,1439.17,1578.55,599.94,576.72,9.84,0000 0000 0000 0000 000000
2018-07-05 02:31:05,0.66,10.40,1.00,29.10,32.67,35.09,13.69,59.61,1003.93,2000.00,1115.38,1436.84,1575.86,600.05,576.69,9.89,0000 0000 0000 0000 000000
2018-07-05 02:36:07,0.64,10.43,1.00,29.10,32.67,35.09,13.73,59.77,1003.92,2000.00,1112.02,1434.55,1573.17,600.42,577.03,9.94,0000 0000 0000 0000 000000
2018-07-05 02:41:08,0.66,10.46,1.00,29.10,32.67,35.09,13.60,59.48,1003.92,2000.00,1108.52,1432.23,1570.46,599.89,576.65,9.99,0000 0000 0000 0000 000000
2018-07-05 02:46:09,0.63,10.49,1.00,29.10,32.67,35.10,13.62,59.45,1003.92,2000.00,1105.23,1429.95,1567.78,600.01,576.72,10.04,0000 0000 0000 0000 000000
2018-07-05 02:51:11,0.67,10.53,1.00,29.10,32.67,35.09,13.65,59.62,1003.92,2000.00,1101.91,1427.59,1565.07,600.25,576.94,10.09,0000 0000 0000 0000 000000
2018-07-05 02:56:12,0.72,10.56,1.00,29.10,32.67,35.10,13.58,59.37,1003.83,2000.00,1098.26,1425.10,1562.13,600.09,576.69,10.14,0000 0000 0000 0000 000000
2018-07-05 03:01:14,0.63,10.60,1.00,29.10,32.67,35.09,13.61,59.41,1003.68,2000.01,1094.93,1422.76,1559.41,599.77,576.31,10.19,0000 0000 0000 0000 000000
2018-07-05 03:06:15,0.63,10.63,1.00,29.11,32.67,35.10,13.68,59.74,1003.66,2000.02,1091.90,1420.46,1556.76,599.95,576.58,10.24,0000 0000 0000 0000 000000
2018-07-05 03:11:16,0.60,10.66,1.00,29.10,32.67,35.10,13.65,59.65,1003.55,2000.00,1088.93,1418.28,1554.24,600.21,576.74,10.29,0000 0000 0000 0000 000000
2018-07-05 03:16:17,0.55,10.69,1.00,29.10,32.67,35.10,13.60,59.53,1003.57,2000.01,1086.23,1416.21,1551.86,599.93,576.47,10.34,0000 0000 0000 0000 000000
2018-07-05 03:21:18,0.59,10.72,1.00,29.10,32.67,35.10,13.69,59.88,1003.64,2000.00,1083.42,1414.12,1549.42,600.10,576.56,10.39,0000 0000 0000 0000 000000
2018-07-05 03:26:20,0.57,10.74,1.00,29.10,32.67,35.09,13.68,59.84,1003.67,2000.00,1080.58,1412.08,1547.07,600.25,576.90,10.44,0000 0000 0000 0000 000000
2018-07-05 03:31:21,0.57,10.78,1.00,29.10,32.67,35.10,13.67,60.10,1003.61,2000.00,1077.71,1410.06,1544.76,600.21,576.74,10.49,0000 0000 0000 0000 000000
2018-07-05 03:36:22,0.58,10.81,1.00,29.10,32.67,35.10,13.63,59.88,1003.57,2000.00,1074.82,1408.12,1542.48,599.88,576.40,10.54,0000 0000 0000 0000 000000
2018-07-05 03:41:23,0.59,10.83,1.00,29.10,32.67,35.11,13.67,59.77,1003.69,2000.00,1071.98,1406.17,1540.06,600.13,576.63,10.60,0000 0000 0000 0000 000000
2018-07-05 03:46:24,0.61,10.86,1.00,29.09,32.67,35.09,13.65,60.03,1003.68,2000.00,1069.03,1404.04,1537.62,599.95,576.54,10.65,0000 0000 0000 0000 000000
2018-07-05 03:51:25,0.62,10.90,1.00,29.10,32.67,35.10,13.70,60.39,1003.54,2000.00,1066.02,1401.89,1535.25,600.01,576.51,10.70,0000 0000 0000 0000 000000
2018-07-05 03:56:27,0.64,10.93,1.00,29.10,32.67,35.10,13.75,60.08,1003.48,2000.00,1062.93,1399.67,1532.82,600.13,576.47,10.75,0000 0000 0000 0000 000000
2018-07-05 04:01:28,0.66,10.96,1.00,29.09,32.67,35.10,13.71,60.17,1003.45,2000.00,1059.91,1397.30,1530.09,600.36,576.83,10.80,0000 0000 0000 0000 000000
2018-07-05 04:06:29,0.65,10.99,1.00,29.08,32.67,35.10,13.64,60.05,1003.44,2000.00,1056.87,1394.93,1527.41,599.88,576.30,10.85,0000 0000 0000 0000 000000
2018-07-05 04:11:30,0.65,11.03,1.00,29.09,32.67,35.10,13.71,60.24,1003.44,2000.00,1053.76,1392.63,1524.76,600.09,576.65,10.90,0000 0000 0000 0000 000000
2018-07-05 04:16:31,0.61,11.06,1.00,29.09,32.67,35.09,13.73,60.25,1003.43,2000.00,1051.01,1390.38,1522.20,600.38,576.82,10.95,0000 0000 0000 0000 000000
2018-07-05 04:21:33,0.61,11.09,1.00,29.09,32.67,35.10,13.68,60.40,1003.43,2000.00,1048.28,1388.25,1519.80,599.75,576.09,11.00,0000 0000 0000 0000 000000
2018-07-05 04:26:34,0.61,11.12,1.00,29.09,32.67,35.10,13.67,60.16,1003.43,2000.00,1045.52,1386.14,1517.33,600.04,576.50,11.05,0000 0000 0000 0000 000000
2018-07-05 04:31:35,0.64,11.15,1.00,29.10,32.67,35.09,13.63,60.46,1003.43,2000.00,1042.59,1383.95,1514.80,599.75,576.25,11.10,0000 0000 0000 0000 000000
2018-07-05 04:36:37,0.65,11.18,1.00,29.10,32.67,35.09,13.63,60.37,1003.43,2000.00,1039.61,1381.69,1512.21,599.93,576.39,11.15,0000 0000 0000 0000 000000
2018-07-05 04:41:38,0.64,11.22,1.00,29.10,32.67,35.10,13.61,60.47,1003.43,2000.00,1036.65,1379.46,1509.60,599.72,576.11,11.20,0000 0000 0000 0000 000000
2018-07-05 04:46:40,0.60,11.25,1.00,29.07,32.67,35.09,13.69,60.87,1003.43,2000.00,1033.92,1377.36,1507.24,600.45,576.97,11.25,0000 0000 0000 0000 000000
2018-07-05 04:51:41,0.56,11.28,1.00,29.07,32.67,35.11,13.68,61.27,1003.43,2000.00,1031.34,1375.44,1505.06,600.18,576.65,11.30,0000 0000 0000 0000 000000
2018-07-05 04:56:42,0.55,11.30,1.00,29.07,32.67,35.10,13.66,61.06,1003.43,2000.00,1028.91,1373.59,1502.99,599.89,576.44,11.35,0000 0000 0000 0000 000000
2018-07-05 05:01:44,0.51,11.33,1.00,29.07,32.67,35.10,13.64,61.14,1003.42,2000.00,1026.46,1371.87,1500.97,599.73,576.31,11.40,0000 0000 0000 0000 000000
2018-07-05 05:06:45,0.45,11.36,1.00,29.07,32.67,35.08,13.60,61.07,1003.42,2000.00,1024.23,1370.24,1499.14,600.00,576.61,11.45,0000 0000 0000 0000 000000
2018-07-05 05:11:46,0.44,11.38,1.00,29.07,32.67,35.08,13.63,61.02,1003.42,2000.00,1022.31,1368.67,1497.35,600.15,576.72,11.50,0000 0000 0000 0000 000000
2018-07-05 05:16:48,0.47,11.40,1.00,29.07,32.66,35.08,13.64,60.87,1003.43,2000.00,1020.16,1367.22,1495.64,600.06,576.51,11.55,0000 0000 0000 0000 000000
2018-07-05 05:21:49,0.52,11.43,1.00,29.06,32.66,35.09,13.68,60.82,1003.38,2000.00,1017.96,1365.54,1493.71,600.07,576.46,11.60,0000 0000 0000 0000 000000
2018-07-05 05:26:50,0.60,11.45,1.00,29.07,32.65,35.12,13.75,60.77,1003.30,2000.00,1015.38,1363.53,1491.44,600.27,576.77,11.65,0000 0000 0000 0000 000000
2018-07-05 05:31:51,0.57,11.48,1.00,29.06,32.65,35.13,13.69,61.01,1003.29,2000.00,1013.03,1361.49,1489.13,599.79,576.21,11.70,0000 0000 0000 0000 000000
2018-07-05 05:36:53,0.45,11.51,1.00,29.07,32.65,35.11,13.66,61.25,1003.35,2000.00,1011.00,1359.56,1486.89,599.87,576.42,11.75,0000 0000 0000 0000 000000
2018-07-05 05:41:54,0.48,11.54,1.00,29.07,32.65,35.10,13.68,61.24,1003.37,2000.00,1008.98,1357.96,1485.11,600.02,576.43,11.80,0000 0000 0000 0000 000000
2018-07-05 05:46:55,0.52,11.56,1.00,29.05,32.65,35.10,13.67,61.27,1003.37,2000.00,1006.47,1356.42,1483.32,599.90,576.34,11.85,0000 0000 0000 0000 000000
2018-07-05 05:51:56,0.54,11.59,1.00,29.05,32.65,35.09,13.62,61.37,1003.34,2000.00,1004.09,1354.70,1481.38,600.26,576.70,11.90,0000 0000 0000 0000 000000
2018-07-05 05:56:58,0.45,11.61,1.00,29.05,32.65,35.07,13.65,61.38,1003.34,2000.00,1002.19,1353.00,1479.44,600.23,576.74,11.95,0000 0000 0000 0000 000000
2018-07-05 06:01:59,0.50,11.64,1.00,29.05,32.65,35.07,13.64,61.51,1003.40,2000.00,999.94,1351.45,1477.64,600.25,576.81,12.00,0000 0000 0000 0000 000000
2018-07-05 06:07:01,0.52,11.66,1.00,29.05,32.65,35.07,13.65,61.34,1003.43,2000.00,997.64,1349.84,1475.81,599.77,576.31,12.05,0000 0000 0000 0000 000000
2018-07-05 06:12:02,0.46,11.68,1.00,29.04,32.64,35.07,13.70,61.41,1003.43,2000.00,995.52,1348.36,1473.95,599.86,576.36,12.10,0000 0000 0000 0000 000000
2018-07-05 06:17:03,0.47,11.71,1.00,29.04,32.63,35.06,13.57,61.28,1003.43,2000.00,993.49,1346.77,1472.28,599.85,576.41,12.15,0000 0000 0000 0000 000000
2018-07-05 06:22:04,0.51,11.73,1.00,29.03,32.63,35.06,13.62,61.49,1003.34,2000.00,991.22,1345.21,1470.60,600.11,576.66,12.20,0000 0000 0000 0000 000000
2018-07-05 06:27:06,0.54,11.76,1.00,29.02,32.62,35.10,13.66,61.63,1003.36,2000.00,988.82,1343.61,1468.75,600.06,576.63,12.25,0000 0000 0000 0000 000000
2018-07-05 06:32:07,0.50,11.79,0.03,29.02,32.62,35.11,13.69,61.42,1003.41,2000.00,986.54,1342.05,1466.77,599.85,576.47,12.30,0000 0000 0000 0000 000000
2018-07-05 06:37:08,0.50,11.81,0.00,29.02,32.62,35.09,13.59,61.35,1003.42,2000.00,984.35,1340.43,1464.88,599.75,576.41,12.35,0000 0000 0000 0000 000000
2018-07-05 06:42:09,0.53,11.84,0.00,29.02,32.62,35.07,13.71,61.47,1003.41,2000.03,982.07,1338.76,1463.07,599.80,576.48,12.40,0000 0000 0000 0000 000000
2018-07-05 06:47:11,0.80,11.87,0.00,29.01,32.62,35.06,13.66,61.47,1003.40,2000.17,979.08,1336.37,1460.32,599.83,576.46,12.45,0000 0000 0000 0000 000000
2018-07-05 06:52:12,0.60,11.91,0.00,29.00,32.62,35.07,13.69,61.80,1003.40,2000.07,976.71,1333.93,1457.48,600.03,576.68,12.50,0000 0000 0000 0000 000000
2018-07-05 06:57:14,0.43,11.94,0.00,29.00,32.60,35.07,13.63,61.70,1003.43,2000.04,974.95,1332.13,1455.51,600.07,576.65,12.55,0000 0000 0000 0000 000000
2018-07-05 07:02:15,0.57,11.96,0.97,29.00,32.60,35.07,13.74,61.49,1003.43,2000.07,972.68,1330.49,1453.65,599.92,576.53,12.60,0000 0000 0000 0000 000000
2018-07-05 07:07:17,1.35,12.01,1.00,29.00,32.60,35.07,13.70,61.42,1003.43,2000.72,968.39,1327.13,1449.81,600.14,576.80,12.65,0000 0000 0000 0000 000000
2018-07-05 07:12:18,0.85,12.07,1.00,29.00,32.60,35.09,13.64,61.87,1003.42,2000.36,964.84,1322.61,1444.71,599.87,576.46,12.70,0000 0000 0000 0000 000000
2018-07-05 07:17:19,0.63,12.10,1.00,29.00,32.60,35.08,13.76,61.85,1003.42,2000.07,962.46,1320.38,1442.27,600.33,576.83,12.75,0000 0000 0000 0000 000000
2018-07-05 07:22:20,0.62,12.13,1.00,28.99,32.60,35.08,13.66,61.51,1003.43,2000.09,959.92,1318.25,1439.79,600.01,576.70,12.81,0000 0000 0000 0000 000000
2018-07-05 07:27:22,1.53,12.19,1.00,28.98,32.60,35.06,13.66,61.56,1003.43,2000.69,955.32,1314.29,1435.32,599.96,576.59,12.86,0000 0000 0000 0000 000000
2018-07-05 07:32:23,0.60,12.24,1.00,28.99,32.60,35.08,13.68,61.50,1003.43,2000.25,952.39,1310.75,1431.39,599.83,576.58,12.91,0000 0000 0000 0000 000000
2018-07-05 07:37:24,0.96,12.28,1.00,28.97,32.60,35.07,13.67,61.59,1003.44,2000.38,949.36,1308.24,1428.58,599.71,576.29,12.96,0000 0000 0000 0000 000000
2018-07-05 07:42:25,0.70,12.33,1.00,28.97,32.60,35.05,13.73,61.94,1003.47,2000.19,946.22,1305.16,1425.02,600.43,577.15,13.01,0000 0000 0000 0000 000000
2018-07-05 07:47:27,0.49,12.35,1.00,28.97,32.60,35.06,13.74,61.94,1003.45,2000.05,944.17,1303.40,1423.05,600.04,576.65,13.06,0000 0000 0000 0000 000000
2018-07-05 07:52:28,0.99,12.39,1.00,28.96,32.59,35.04,13.67,61.75,1003.45,2000.24,940.61,1301.15,1420.54,599.88,576.66,13.11,0000 0000 0000 0000 000000
2018-07-05 07:57:29,1.38,12.46,1.00,28.96,32.59,35.06,13.68,61.69,1003.45,2000.39,935.62,1296.76,1415.47,599.93,576.73,13.16,0000 0000 0000 0000 000000
2018-07-05 08:02:30,1.21,12.52,1.00,28.95,32.58,35.05,13.69,61.79,1003.51,2000.43,931.40,1292.88,1411.11,600.34,577.20,13.21,0000 0000 0000 0000 000000
2018-07-05 08:07:31,0.61,12.56,1.00,28.95,32.57,35.04,13.64,62.02,1003.61,2000.19,928.71,1289.85,1407.76,599.81,576.61,13.26,0000 0000 0000 0000 000000
2018-07-05 08:12:33,0.97,12.60,1.00,28.95,32.57,35.02,13.67,61.77,1003.63,2000.49,925.42,1287.41,1404.98,599.91,576.76,13.31,0000 0000 0000 0000 000000
2018-07-05 08:17:34,0.68,12.64,1.00,28.95,32.57,35.01,13.67,62.04,1003.90,2000.25,922.62,1284.81,1402.06,600.11,577.12,13.36,0000 0000 0000 0000 000000
2018-07-05 08:22:35,0.77,12.68,1.00,28.95,32.57,35.03,13.69,62.20,1003.92,2000.29,919.74,1282.27,1399.19,600.08,577.08,13.41,0000 0000 0000 0000 000000
2018-07-05 08:27:37,0.62,12.72,1.00,28.95,32.57,35.04,13.69,62.21,1003.92,2000.22,917.39,1280.23,1396.82,599.93,576.83,13.46,0000 0000 0000 0000 000000
2018-07-05 08:32:38,0.65,12.75,1.00,28.95,32.57,35.03,13.77,62.27,1004.10,2000.21,914.98,1278.31,1394.53,600.51,577.58,13.51,0000 0000 0000 0000 000000
2018-07-05 08:37:40,0.80,12.78,1.00,28.94,32.55,35.02,13.72,62.25,1004.29,2000.37,912.28,1275.98,1391.86,599.92,577.10,13.56,0000 0000 0000 0000 000000
2018-07-05 08:42:41,0.68,12.82,1.00,28.94,32.55,34.99,13.72,62.32,1004.38,2000.16,909.64,1273.52,1389.13,600.00,577.29,13.61,0000 0000 0000 0000 000000
2018-07-05 08:47:42,0.63,12.85,1.00,28.92,32.55,34.98,13.66,62.29,1004.41,2000.27,907.42,1271.61,1387.00,599.74,577.20,13.66,0000 0000 0000 0000 000000
2018-07-05 08:52:43,0.55,12.88,1.00,28.92,32.54,35.00,13.78,62.52,1004.41,2000.23,905.34,1269.75,1384.92,600.40,577.69,13.71,0000 0000 0000 0000 000000
2018-07-05 08:57:45,0.60,12.91,1.00,28.92,32.52,35.00,13.71,62.34,1004.60,2000.28,903.31,1267.92,1382.87,600.23,577.43,13.76,0000 0000 0000 0000 000000
2018-07-05 09:02:46,0.66,12.95,1.00,28.90,32.52,35.00,13.68,62.34,1004.89,2000.42,901.09,1265.95,1380.70,599.69,577.31,13.81,0000 0000 0000 0000 000000
2018-07-05 09:07:47,0.52,12.97,1.00,28.90,32.52,34.99,13.68,62.32,1004.90,2000.40,899.08,1264.24,1378.69,600.36,577.89,13.86,0000 0000 0000 0000 000000
2018-07-05 09:12:48,0.63,13.00,1.00,28.90,32.50,34.99,13.73,62.51,1004.93,2000.54,896.87,1262.56,1376.76,600.22,577.93,13.91,0000 0000 0000 0000 000000
2018-07-05 09:17:50,0.53,13.03,1.00,28.89,32.50,34.97,13.71,62.44,1005.23,2000.41,894.75,1260.90,1374.85,599.91,577.76,13.96,0000 0000 0000 0000 000000
2018-07-05 09:22:51,0.51,13.06,1.00,28.87,32.50,34.98,13.73,62.29,1005.38,2000.47,892.70,1259.54,1373.17,600.06,577.99,14.01,0000 0000 0000 0000 000000
2018-07-05 09:27:53,0.48,13.08,1.00,28.87,32.49,34.94,13.69,62.45,1005.39,2000.52,890.84,1258.13,1371.59,599.41,577.41,14.06,0000 0000 0000 0000 000000
2018-07-05 09:32:54,0.40,13.11,1.00,28.86,32.47,34.96,13.70,62.36,1005.40,2000.39,889.14,1256.85,1370.11,599.66,577.79,14.11,0000 0000 0000 0000 000000
2018-07-05 09:37:55,0.48,13.13,1.00,28.85,32.47,34.94,13.71,62.71,1005.40,2000.57,887.49,1255.71,1368.70,599.96,578.01,14.16,0000 0000 0000 0000 000000
2018-07-05 09:42:57,0.51,13.15,1.00,28.85,32.47,34.96,13.68,62.65,1005.46,2000.69,885.67,1254.38,1367.23,600.06,578.22,14.21,0000 0000 0000 0000 000000
2018-07-05 09:47:58,0.45,13.18,1.00,28.83,32.45,34.95,13.72,62.82,1005.71,2000.60,883.86,1252.94,1365.61,599.86,578.13,14.26,0000 0000 0000 0000 000000
2018-07-05 09:52:59,0.49,13.20,1.00,28.82,32.45,34.92,13.74,63.00,1005.85,2000.65,882.07,1251.63,1364.08,599.78,578.14,14.31,0000 0000 0000 0000 000000
2018-07-05 09:58:01,0.49,13.23,0.87,28.82,32.45,34.92,13.77,62.82,1005.87,2000.78,880.30,1250.31,1362.54,600.32,578.67,14.36,0000 0000 0000 0000 000000
2018-07-05 10:03:02,0.51,13.25,0.00,28.81,32.43,34.92,13.69,62.81,1005.87,2000.82,878.39,1248.88,1360.94,599.62,578.08,14.41,0000 0000 0000 0000 000000
2018-07-05 10:08:03,0.54,13.28,0.00,28.80,32.42,34.91,13.74,62.96,1005.94,2000.86,876.48,1247.52,1359.37,600.13,578.49,14.46,0000 0000 0000 0000 000000
2018-07-05 10:13:04,0.75,13.31,0.00,28.80,32.42,34.92,13.75,63.06,1006.08,2000.94,874.00,1245.49,1357.14,600.10,578.57,14.51,0000 0000 0000 0000 000000
2018-07-05 10:18:05,0.61,13.35,0.00,28.78,32.41,34.91,13.76,63.20,1006.25,2000.93,871.56,1243.68,1355.07,599.92,578.55,14.56,0000 0000 0000 0000 000000
2018-07-05 10:23:06,0.52,13.38,0.00,28.77,32.40,34.90,13.70,63.09,1006.35,2000.95,869.52,1242.29,1353.45,599.63,578.35,14.61,0000 0000 0000 0000 000000
2018-07-05 10:28:08,0.55,13.40,0.17,28.76,32.40,34.88,13.77,63.22,1006.36,2000.93,867.44,1240.84,1351.82,600.09,578.74,14.66,0000 0000 0000 0000 000000
2018-07-05 10:33:09,0.58,13.43,1.00,28.75,32.39,34.88,13.73,63.18,1006.36,2000.97,865.20,1239.40,1350.09,600.02,578.83,14.71,0000 0000 0000 0000 000000
2018-07-05 10:38:10,0.68,13.46,1.00,28.74,32.37,34.87,13.76,63.37,1006.36,2000.95,862.68,1237.68,1348.17,599.96,578.77,14.76,0000 0000 0000 0000 000000
2018-07-05 10:43:12,0.61,13.49,1.00,28.72,32.37,34.87,13.75,63.20,1006.45,2000.95,860.27,1236.03,1346.28,599.99,578.88,14.81,0000 0000 0000 0000 000000
2018-07-05 10:48:13,0.58,13.53,1.00,28.72,32.36,34.85,13.77,63.41,1006.83,2000.95,858.09,1234.56,1344.61,599.96,579.01,14.86,0000 0000 0000 0000 000000
2018-07-05 10:53:15,0.51,13.55,1.00,28.72,32.35,34.85,13.75,63.35,1006.85,2000.93,855.99,1233.14,1343.06,599.64,578.76,14.91,0000 0000 0000 0000 000000
2018-07-05 10:58:16,0.53,13.58,1.00,28.70,32.35,34.85,13.75,63.30,1006.86,2000.96,854.03,1231.80,1341.62,600.05,579.18,14.96,0000 0000 0000 0000 000000
2018-07-05 11:03:18,0.43,13.60,1.00,28.69,32.32,34.83,13.73,63.35,1006.97,2000.96,852.31,1230.64,1340.28,599.84,579.08,15.01,0000 0000 0000 0000 000000
2018-07-05 11:08:19,0.38,13.62,1.00,28.67,32.32,34.82,13.73,63.71,1007.04,2000.97,850.79,1229.71,1339.17,599.78,579.22,15.07,0000 0000 0000 0000 000000
2018-07-05 11:13:20,0.32,13.64,1.00,28.67,32.31,34.82,13.75,63.46,1007.25,2000.97,849.54,1228.86,1338.23,600.25,579.69,15.12,0000 0000 0000 0000 000000
2018-07-05 11:18:21,0.32,13.66,1.00,28.65,32.30,34.81,13.73,63.37,1007.34,2000.99,848.29,1228.03,1337.26,599.80,579.29,15.17,0000 0000 0000 0000 000000
2018-07-05 11:23:23,0.35,13.67,1.00,28.64,32.30,34.80,13.81,63.55,1007.34,2000.99,846.93,1227.17,1336.31,600.02,579.65,15.22,0000 0000 0000 0000 000000
2018-07-05 11:28:24,0.36,13.69,0.80,28.62,32.27,34.78,13.69,63.75,1007.37,2000.99,845.60,1226.46,1335.43,600.21,579.86,15.27,0000 0000 0000 0000 000000
2018-07-05 11:33:25,0.28,13.71,0.00,28.61,32.27,34.77,13.81,63.83,1007.68,2000.99,844.32,1225.78,1334.52,600.50,580.26,15.32,0000 0000 0000 0000 000000
2018-07-05 11:38:27,0.27,13.73,0.00,28.60,32.26,34.76,13.82,63.66,1007.83,2000.99,843.06,1225.03,1333.78,600.33,580.17,15.37,0000 0000 0000 0000 000000
2018-07-05 11:43:28,0.38,13.74,0.00,28.58,32.25,34.76,13.85,63.50,1007.83,2000.99,841.73,1224.30,1332.88,600.20,580.12,15.42,0000 0000 0000 0000 000000
2018-07-05 11:48:30,0.35,13.76,0.00,28.57,32.24,34.76,13.80,63.51,1007.83,2001.00,840.37,1223.51,1331.87,600.09,580.07,15.47,0000 0000 0000 0000 000000
2018-07-05 11:53:31,0.27,13.78,0.00,28.55,32.22,34.75,13.80,63.51,1007.84,2001.00,839.02,1222.79,1331.00,599.86,579.91,15.52,0000 0000 0000 0000 000000
2018-07-05 11:58:33,0.27,13.79,0.00,28.54,32.22,34.73,13.87,63.44,1007.87,2001.00,837.91,1222.04,1330.16,600.26,580.26,15.57,0000 0000 0000 0000 000000
2018-07-05 12:03:34,0.29,13.80,0.00,28.52,32.20,34.71,13.84,63.56,1007.97,2001.00,836.85,1221.58,1329.65,600.14,580.34,15.62,0000 0000 0000 0000 000000
2018-07-05 12:08:35,0.26,13.82,0.00,28.52,32.20,34.72,13.86,63.58,1008.10,2001.01,835.68,1220.97,1328.92,600.30,580.53,15.67,0000 0000 0000 0000 000000
2018-07-05 12:13:36,0.33,13.83,0.00,28.50,32.18,34.70,13.83,63.56,1008.26,2001.00,834.55,1220.18,1328.07,600.59,580.97,15.72,0000 0000 0000 0000 000000
2018-07-05 12:18:38,0.30,13.85,0.00,28.47,32.17,34.70,13.78,63.53,1008.31,2001.02,833.41,1219.58,1327.31,599.76,580.29,15.77,0000 0000 0000 0000 000000
2018-07-05 12:23:39,0.31,13.87,0.00,28.46,32.15,34.68,13.79,63.62,1008.32,2001.01,832.07,1218.74,1326.31,599.88,580.43,15.82,0000 0000 0000 0000 000000
2018-07-05 12:28:41,0.33,13.88,0.00,28.44,32.15,34.70,13.79,63.73,1008.32,2001.01,830.81,1217.94,1325.40,599.95,580.46,15.87,0000 0000 0000 0000 000000
2018-07-05 12:33:42,0.39,13.90,0.00,28.42,32.12,34.66,13.83,63.74,1008.39,2001.07,829.43,1217.07,1324.43,599.85,580.51,15.92,0000 0000 0000 0000 000000
2018-07-05 12:38:43,0.38,13.92,0.00,28.40,32.12,34.67,13.84,63.64,1008.46,2001.07,827.95,1216.20,1323.48,599.90,580.51,15.97,0000 0000 0000 0000 000000
2018-07-05 12:43:45,0.43,13.94,0.00,28.39,32.10,34.65,13.80,63.67,1008.54,2001.16,826.49,1215.45,1322.53,599.97,580.75,16.02,0000 0000 0000 0000 000000
2018-07-05 12:48:46,0.25,13.96,0.00,28.37,32.09,34.65,13.88,63.75,1008.76,2001.27,825.13,1214.89,1321.71,600.01,580.92,16.07,0000 0000 0000 0000 000000
2018-07-05 12:53:47,0.36,13.97,0.00,28.36,32.07,34.65,13.84,63.84,1008.80,2001.37,823.84,1214.09,1320.88,599.98,580.99,16.12,0000 0000 0000 0000 000000